| time (UTC) | temp C | wind direction | speed KPH | gust KPH | rain 1hr cm | rain 24hr cm | rain mn cm | humidity % | barometer mb |
| 20260504202313 | 23 | 250 | 6.4 | 11.3 | 0.00 | 0.00 | 0.00 | 50 | 989.1 |
| 20260504201411 | 22 | 254 | 11.3 | 19.3 | 0.00 | 0.00 | 0.00 | 50 | 989.1 |
| 20260504200414 | 22 | 279 | 3.2 | 6.4 | 0.00 | 0.00 | 0.00 | 50 | 989.4 |
| 20260504195511 | 22 | 197 | 8.0 | 14.5 | 0.00 | 0.00 | 0.00 | 48 | 989.4 |
| 20260504193513 | 22 | 218 | 12.9 | 22.5 | 0.00 | 0.00 | 0.00 | 51 | 989.8 |
| 20260504192514 | 22 | 263 | 9.7 | 16.1 | 0.00 | 0.00 | 0.00 | 49 | 990.1 |
| 20260504191514 | 22 | 228 | 9.7 | 16.1 | 0.00 | 0.00 | 0.00 | 49 | 990.1 |
| 20260504190612 | 22 | 227 | 14.5 | 25.7 | 0.00 | 0.00 | 0.00 | 47 | 990.2 |
| 20260504185613 | 22 | 258 | 11.3 | 19.3 | 0.00 | 0.00 | 0.00 | 47 | 990.1 |
| 20260504184613 | 21 | 247 | 9.7 | 9.7 | 0.00 | 0.00 | 0.00 | 49 | 990.5 |
| 20260504183613 | 21 | 239 | 14.5 | 22.5 | 0.00 | 0.00 | 0.00 | 47 | 990.3 |
| 20260504182613 | 22 | 228 | 16.1 | 24.1 | 0.00 | 0.00 | 0.00 | 47 | 990.2 |
| 20260504180614 | 21 | 236 | 12.9 | 20.9 | 0.00 | 0.00 | 0.00 | 47 | 990.3 |
| 20260504174713 | 21 | 209 | 17.7 | 29.0 | 0.00 | 0.00 | 0.00 | 45 | 990.4 |
| 20260504173713 | 20 | 214 | 22.5 | 32.2 | 0.00 | 0.00 | 0.00 | 45 | 990.4 |
| 20260504172711 | 20 | 238 | 8.0 | 14.5 | 0.00 | 0.00 | 0.00 | 44 | 990.4 |
| 20260504171811 | 20 | 231 | 19.3 | 32.2 | 0.00 | 0.00 | 0.00 | 47 | 990.4 |
| 20260504170812 | 20 | 221 | 12.9 | 22.5 | 0.00 | 0.00 | 0.00 | 46 | 990.4 |
| 20260504151013 | 17 | 207 | 14.5 | 20.9 | 0.00 | 0.00 | 0.00 | 45 | 991.1 |
| 20260504141212 | 16 | 226 | 16.1 | 25.7 | 0.00 | 0.00 | 0.00 | 43 | 991.9 |
| 20260504140213 | 16 | 245 | 11.3 | 20.9 | 0.00 | 0.00 | 0.00 | 43 | 991.5 |
| 20260504130423 | 13 | 211 | 8.0 | 14.5 | 0.00 | 0.00 | 0.00 | 43 | 992.2 |
| 20260504110714 | 10 | 204 | 12.9 | 20.9 | 0.00 | 0.00 | 0.00 | 41 | 991.5 |
| 20260504081913 | 10 | 202 | 6.4 | 11.3 | 0.00 | 0.00 | 0.00 | 41 | 991.5 |
| 20260504080913 | 10 | 211 | 8.0 | 16.1 | 0.00 | 0.00 | 0.00 | 41 | 991.9 |
| 20260504070112 | 10 | 213 | 8.0 | 14.5 | 0.00 | 0.00 | 0.00 | 41 | 991.9 |
| 20260504050212 | 9 | 225 | 3.2 | 6.4 | 0.00 | 0.00 | 0.00 | 41 | 992.2 |
| 20260504045212 | 9 | 210 | 6.4 | 9.7 | 0.00 | 0.00 | 0.00 | 41 | 992.2 |
| 20260504044311 | 9 | 203 | 3.2 | 8.0 | 0.00 | 0.00 | 0.00 | 41 | 992.6 |
| 20260504043314 | 10 | 202 | 3.2 | 4.8 | 0.00 | 0.00 | 0.00 | 41 | 992.6 |
| 20260504042412 | 10 | 202 | 1.6 | 4.8 | 0.00 | 0.00 | 0.00 | 41 | 992.6 |
| 20260504041411 | 10 | 202 | 1.6 | 3.2 | 0.00 | 0.00 | 0.00 | 41 | 992.6 |
| 20260504040415 | 10 | 202 | 1.6 | 3.2 | 0.00 | 0.00 | 0.00 | 41 | 992.6 |
| 20260504035424 | 10 | 202 | 1.6 | 3.2 | 0.00 | 0.00 | 0.00 | 41 | 992.6 |
| 20260504033524 | 11 | 202 | 3.2 | 4.8 | 0.00 | 0.00 | 0.00 | 43 | 992.6 |
| 20260504032522 | 11 | 225 | 3.2 | 4.8 | 0.00 | 0.00 | 0.00 | 43 | 992.8 |
| 20260504031621 | 11 | 202 | 3.2 | 6.4 | 0.00 | 0.00 | 0.00 | 41 | 992.9 |
| 20260504030623 | 11 | 247 | 1.6 | 3.2 | 0.00 | 0.00 | 0.00 | 41 | 993.2 |
| 20260504025621 | 12 | 247 | 1.6 | 4.8 | 0.00 | 0.00 | 0.00 | 41 | 992.9 |
| 20260504024622 | 11 | 225 | 1.6 | 4.8 | 0.00 | 0.00 | 0.00 | 41 | 993.2 |
| 20260504023623 | 11 | 247 | 1.6 | 4.8 | 0.00 | 0.00 | 0.00 | 41 | 993.2 |
| 20260504022624 | 11 | 270 | 1.6 | 3.2 | 0.00 | 0.00 | 0.00 | 41 | 993.2 |
| 20260504021621 | 12 | 270 | 0.0 | 3.2 | 0.00 | 0.00 | 0.00 | 41 | 993.6 |
| 20260504020622 | 12 | 292 | 0.0 | 0.0 | 0.00 | 0.00 | 0.00 | 41 | 993.6 |
| 20260504015623 | 12 | 247 | 1.6 | 3.2 | 0.00 | 0.00 | 0.00 | 42 | 993.6 |
| 20260504014721 | 12 | 225 | 1.6 | 3.2 | 0.00 | 0.00 | 0.00 | 44 | 993.6 |
| 20260504013723 | 12 | 292 | 0.0 | 0.0 | 0.00 | 0.00 | 0.00 | 45 | 993.6 |
| 20260504011725 | 12 | 284 | 1.6 | 6.4 | 0.00 | 0.00 | 0.00 | 45 | 993.6 |
| 20260504010722 | 12 | 252 | 6.4 | 9.7 | 0.00 | 0.00 | 0.00 | 45 | 993.9 |
| 20260504005722 | 12 | 255 | 6.4 | 14.5 | 0.00 | 0.00 | 0.00 | 45 | 993.6 |
| 20260504004721 | 13 | 254 | 9.7 | 14.5 | 0.00 | 0.00 | 0.00 | 45 | 993.6 |
| 20260504003722 | 13 | 292 | 8.0 | 17.7 | 0.00 | 0.00 | 0.00 | 45 | 993.6 |
| 20260504001822 | 13 | 269 | 6.4 | 19.3 | 0.00 | 0.00 | 0.00 | 46 | 993.2 |
| 20260504000822 | 13 | 285 | 3.2 | 11.3 | 0.00 | 0.00 | 0.00 | 45 | 992.9 |
| 20260503235823 | 13 | 287 | 3.2 | 11.3 | 0.00 | 0.00 | 0.00 | 45 | 992.9 |
| 20260503233823 | 13 | 238 | 6.4 | 14.5 | 0.00 | 0.00 | 0.00 | 45 | 992.9 |
| 20260503230922 | 13 | 264 | 9.7 | 17.7 | 0.00 | 0.00 | 0.00 | 45 | 993.2 |
| 20260503230021 | 13 | 309 | 1.6 | 17.7 | 0.00 | 0.00 | 0.00 | 43 | 993.0 |
| 20260503225023 | 13 | 270 | 9.7 | 27.4 | 0.00 | 0.00 | 0.00 | 42 | 993.0 |
| 20260503224022 | 13 | 317 | 0.0 | 6.4 | 0.00 | 0.00 | 0.00 | 42 | 992.7 |
| 20260503221122 | 14 | 247 | 4.8 | 11.3 | 0.00 | 0.00 | 0.00 | 42 | 992.6 |
| 20260503220125 | 14 | 271 | 4.8 | 11.3 | 0.00 | 0.00 | 0.00 | 42 | 992.9 |
| 20260503215123 | 13 | 279 | 3.2 | 6.4 | 0.00 | 0.00 | 0.00 | 42 | 992.9 |
| 20260503213222 | 14 | 257 | 8.0 | 11.3 | 0.00 | 0.00 | 0.00 | 43 | 992.9 |
| 20260503212221 | 14 | 261 | 8.0 | 17.7 | 0.00 | 0.00 | 0.00 | 45 | 992.9 |
| 20260503210222 | 13 | 260 | 3.2 | 8.0 | 0.00 | 0.00 | 0.00 | 44 | 992.9 |
| 20260503205223 | 13 | 254 | 3.2 | 6.4 | 0.00 | 0.00 | 0.00 | 44 | 993.2 |
| 20260503204222 | 13 | 247 | 1.6 | 4.8 | 0.00 | 0.00 | 0.00 | 44 | 993.2 |
| 20260503203321 | 13 | 259 | 6.4 | 11.3 | 0.00 | 0.00 | 0.00 | 43 | 993.2 |